Location: Rometta
(44.2000°N, 10.0500°E)
Time: 11:08:33
(UTC+00:00)

SJ 16-02 - Pass Details

Date: 20 January 2021
Orbit: 606 x 616 km, 75.0° (Epoch: 07 March)

Event Time Altitude Azimuth Distance (km) Brightness Sun altitude
Rises 17:09:37 0° 170° (S) 2,864 4.9 -10.1°
Reaches altitude 10° 17:12:05 10° 159° (SSE) 1,963 3.9 -10.5°
Maximum altitude 17:15:49 28° 100° (E) 1,150 2.3 -11.2°
Enters shadow 17:18:53 14° 47° (NE) 1,738 3.1 -11.7°
